Lexington Weather

Lexington, Massachusetts, USA

25°F
1/21/2021 10:18am 
  • Lexington Conditions: Clear
  • Temperature: 25.2°F / -3.8°CWarmer 2.4°F than last hour.
  • Dew Point: 13.6°FIncreased 1.4°Fsince last hour.
  • Relative Humidity: 61%Decreased 2.0% since last hour.
  • Wind: Calm, 10-min avg: Calm, gust: None
  • Barometer: 29.78 in Steady
  • Visibility: 10 miles
  • Snow Today: 0.0 in
  •   

Regional Weather Roundup
for Boston / Norton, MA

        
000
ASUS41 KBOX 141504
RWRBOX

REGIONAL WEATHER ROUNDUP
NATIONAL WEATHER SERVICE BOSTON/NORTON MA
1000 AM EST THU JAN 14 2021

NOTE:  "FAIR" INDICATES FEW OR NO CLOUDS BELOW 12,000 FEET WITH NO 
SIGNIFICANT WEATHER AND/OR OBSTRUCTIONS TO VISIBILITY.

MAZALL-141600-
EASTERN MASSACHUSETTS
  
CITY           SKY/WX    TMP DP  RH WIND       PRES   REMARKS
BOSTON         CLOUDY    38  28  67 SW9       29.90F WCI  31          
BEVERLY        CLOUDY    36  27  69 CALM      29.88F                  
LAWRENCE       CLOUDY    35  27  72 SW6       29.90S WCI  30          
BEDFORD        CLOUDY    36  28  73 SW6       29.88S HAZE    WCI  31  
BLUE HILL        N/A     35  31  85 W7        29.85F WCI  29          
NORWOOD        CLOUDY    38  32  79 CALM      29.89F FOG              
MARSHFIELD     PTSUNNY   37  34  87 CALM      29.88F                  
PLYMOUTH       PTSUNNY   39  34  82 CALM      29.87F                  
TAUNTON        CLOUDY    39  32  76 CALM      29.88F                  
NEW BEDFORD    PTSUNNY   44  34  67 N3        29.86F                  
$$

MAZALL-141600-
CAPE COD AND THE ISLANDS
  
CITY           SKY/WX    TMP DP  RH WIND       PRES   REMARKS
FALMOUTH       SUNNY     41  36  81 CALM      29.87F                  
HYANNIS        PTSUNNY   45  39  79 CALM      29.86F                  
CHATHAM        PTSUNNY   44  37  76 VRB3      29.89F                  
PROVINCETOWN   LGT RAIN  41  36  82 NW3       29.90F                  
NANTUCKET      CLOUDY    44  39  82 SE9       29.88F                  
MARTHAS VNYRD  PTSUNNY   47  40  76 CALM      29.86F                  
$$
 
MAZALL-141600-
CENTRAL AND WESTERN MASSACHUSETTS
  
CITY           SKY/WX    TMP DP  RH WIND       PRES   REMARKS
WORCESTER      LGT SNOW  31  28  89 SW3       29.84F FOG              
FITCHBURG      LGT SNOW  33  31  92 SE5       29.88S VSB 1   WCI  29  
ORANGE         LGT SNOW  31  29  92 CALM      29.87S VSB 3/4          
SPRINGFIELD    LGT SNOW  32  30  91 CALM      29.86F FOG              
WESTFIELD      LGT SNOW  32  30  92 CALM      29.86F FOG              
NORTH ADAMS    PTSUNNY   34  26  72 CALM      29.84S                  
PITTSFIELD     LGT SNOW  30  27  88 CALM      29.81S FOG              
$$
 
RIZALL-141600-
RHODE ISLAND
  
CITY           SKY/WX    TMP DP  RH WIND       PRES   REMARKS
PROVIDENCE     CLOUDY    40  33  76 N3        29.88F HAZE             
NEWPORT        CLOUDY    43  38  82 NW5       29.86F HAZE             
BLOCK ISLAND   PTSUNNY   44  40  85 NW5       29.87S                  
SMITHFIELD     MIX PCPN  37  36  96 NW3       29.87F                  
WESTERLY       PTSUNNY   41  34  76 N3        29.86F                  
$$
 
CTZALL-141600-
CONNECTICUT
  
CITY           SKY/WX    TMP DP  RH WIND       PRES   REMARKS
BRADLEY INTL   CLOUDY    33  30  88 N5        29.87F WCI  29          
HARTFORD       PTSUNNY   39  29  67 CALM      29.87F HAZE             
BRIDGEPORT     MOSUNNY   45  33  63 NW6       29.86F                  
DANBURY        MOSUNNY   38  28  67 CALM      29.85F                  
GROTON         PTSUNNY   44  36  73 NW5       29.86F                  
NEW HAVEN      PTSUNNY   44  35  70 NW6       29.85F HAZE             
CHESTER        FAIR      41  36  81 CALM      29.85F HAZE             
MERIDEN        PTSUNNY   39  31  72 CALM      29.87S                  
WILLIMANTIC    CLOUDY    33  27  78 CALM      29.88S HAZE             
OXFORD         CLOUDY    37  30  75 CALM      29.85S                  
$$

MEZ002-015-021-024-NHZ003-005-008-011-012-014-VTZ005-008-141600-
NORTHERN NEW ENGLAND
  
CITY           SKY/WX    TMP DP  RH WIND       PRES   REMARKS
PORTLAND ME    CLOUDY    33  25  72 W3        29.90R                  
BANGOR ME      PTSUNNY   30  25  81 CALM      29.89R                  
CONCORD NH     CLOUDY    33  24  69 CALM      29.87S                  
MANCHESTER NH  CLOUDY    34  25  69 SW5       29.87R WCI  30          
NASHUA NH      CLOUDY    35  29  78 VRB3      29.89R                  
PORTSMOUTH NH  PTSUNNY   34  25  69 CALM      29.87S                  
JAFFREY NH     CLOUDY    32  25  75 S5        29.84S WCI  27          
KEENE NH       CLOUDY    32  27  81 CALM      29.87S                  
BURLINGTON VT  CLOUDY    35  26  69 SW3       29.83R                  
MT. WASHINGTON NOT AVBL                                               
$$

NYZ052-076-141600-
EASTERN NEW YORK
  
CITY           SKY/WX    TMP DP  RH WIND       PRES   REMARKS
ALBANY         CLOUDY    32  27  81 SE8       29.84S WCI  25          
NEW YORK CITY  PTSUNNY   47  33  58 NE3       29.85S                  
$$
 
ANZALL-141600-
MARINE OBSERVATIONS
  
STATION/POSITION TIME  TEMP    WIND        PRES    VSBY  WAVE
                       AIR SEA DIR/SP/G                  HT/PER
                 (UTC) (F)     (DEG/KT/KT) (MB)    (MI)  (FT/S)
BOSTON BUOY      1440   39 43  270/  8/ 10 1012.6F
BUZZARDS BAY     1400           CALM  /  1 1012.7S
NANTUCKET SOUND  1440      41   CALM  /  2   N/A
MASS BAY-STELLWA 1404   39     230/  8/ 10 1011.5R  1 7/8  1
ISLE OF SHOALS   1400   36     240/  6/  7 1011.8R
S OF BLOCK IS    1426      47                N/A           3/ 5
$$

......................KEY.........................
  SKY/WX - SKY CONDITION/PRESENT WEATHER
  TMP    - TEMPERATURE IN FAHRENHEIT
  DWPT   - DEWPOINT IN FAHRENHEIT
  RH     - RELATIVE HUMIDITY IN PERCENT
  WIND   - DIRECTION AND SPEED IN MPH
  PRES   - MEAN SEA LEVEL PRESSURE IN INCHES OF HG
  WCI    - WIND CHILL INDEX
  VSB    - VISIBILITY IN MILES
  HX     - HEAT INDEX
  TC     - TEMPERATURE IN CELSIUS
  VRB    - VARIABLE WIND DIRECTION
  N/A    - NOT AVAILABLE
  
      

Other recent Regional Weather Roundups

Thu Jan 21, 9:04am

Thu Jan 21, 7:04am

Thu Jan 21, 6:04am

Thu Jan 21, 5:04am

Thu Jan 21, 4:04am

Thu Jan 21, 3:04am

Thu Jan 21, 2:04am

Thu Jan 21, 1:04am

Thu Jan 21, 12:04am

Wed Jan 20, 11:04pm

Wed Jan 20, 10:05pm

Wed Jan 20, 9:04pm

Wed Jan 20, 8:04pm

Wed Jan 20, 7:04pm

Wed Jan 20, 6:05pm

Wed Jan 20, 5:05pm

Wed Jan 20, 1:04pm

Wed Jan 20, 12:04pm

Wed Jan 20, 11:04am

Wed Jan 20, 10:04am

Wed Jan 20, 9:05am

Wed Jan 20, 8:04am

Wed Jan 20, 7:04am

Wed Jan 20, 6:04am

Wed Jan 20, 5:04am

Wed Jan 20, 4:04am

Wed Jan 20, 3:05am

Wed Jan 20, 2:04am

Wed Jan 20, 1:04am

Wed Jan 20, 12:04am

Tue Jan 19, 11:04pm

Tue Jan 19, 10:04pm

Tue Jan 19, 9:04pm

Tue Jan 19, 8:04pm

Tue Jan 19, 7:04pm

Tue Jan 19, 6:05pm

Tue Jan 19, 5:04pm

Tue Jan 19, 4:05pm

Tue Jan 19, 3:04pm

Tue Jan 19, 2:04pm

Tue Jan 19, 1:04pm

Tue Jan 19, 12:05pm

Tue Jan 19, 11:04am

Tue Jan 19, 10:05am

Tue Jan 19, 9:04am

Tue Jan 19, 8:04am

Tue Jan 19, 7:04am

Tue Jan 19, 6:04am

Tue Jan 19, 5:04am

Tue Jan 19, 4:04am

Tue Jan 19, 3:04am

Tue Jan 19, 2:04am

Tue Jan 19, 1:04am

Tue Jan 19, 12:04am

Mon Jan 18, 11:04pm

Mon Jan 18, 10:04pm

Mon Jan 18, 9:04pm

Mon Jan 18, 8:05pm

Mon Jan 18, 7:04pm

Mon Jan 18, 6:05pm

Mon Jan 18, 5:04pm

Mon Jan 18, 4:04pm

Mon Jan 18, 3:04pm

Mon Jan 18, 2:04pm

Mon Jan 18, 1:04pm

Mon Jan 18, 12:04pm

Mon Jan 18, 11:04am

Mon Jan 18, 10:04am

Mon Jan 18, 9:04am

Mon Jan 18, 8:04am

Mon Jan 18, 7:04am

Mon Jan 18, 6:04am

Mon Jan 18, 5:04am

Mon Jan 18, 4:04am

Mon Jan 18, 3:04am

Mon Jan 18, 2:04am

Mon Jan 18, 1:04am

Mon Jan 18, 12:04am

Sun Jan 17, 11:04pm

Sun Jan 17, 10:04pm

Sun Jan 17, 9:04pm

Sun Jan 17, 8:04pm

Sun Jan 17, 7:04pm

Sun Jan 17, 6:04pm

Sun Jan 17, 5:04pm

Sun Jan 17, 4:05pm

Sun Jan 17, 3:04pm

Sun Jan 17, 2:04pm

Sun Jan 17, 1:04pm

Sun Jan 17, 12:04pm

Sun Jan 17, 11:04am

Sun Jan 17, 10:04am

Sun Jan 17, 9:04am

Sun Jan 17, 8:04am

Sun Jan 17, 7:04am

Sun Jan 17, 6:04am

Sun Jan 17, 5:04am

Sun Jan 17, 4:04am

Sun Jan 17, 3:04am

Sun Jan 17, 2:04am

Sun Jan 17, 1:04am

Sun Jan 17, 12:04am

Sat Jan 16, 11:05pm

Sat Jan 16, 10:04pm

Sat Jan 16, 9:04pm

Sat Jan 16, 8:05pm

Sat Jan 16, 7:04pm

Sat Jan 16, 6:04pm

Sat Jan 16, 5:05pm

Sat Jan 16, 4:05pm

Sat Jan 16, 3:05pm

Sat Jan 16, 2:04pm

Sat Jan 16, 1:04pm

Sat Jan 16, 12:04pm

Sat Jan 16, 11:04am

Sat Jan 16, 10:05am

Sat Jan 16, 9:04am

Sat Jan 16, 8:04am

Sat Jan 16, 7:04am

Sat Jan 16, 6:04am

Sat Jan 16, 5:04am

Sat Jan 16, 4:04am

Sat Jan 16, 3:05am

Sat Jan 16, 2:04am

Sat Jan 16, 1:04am

Sat Jan 16, 12:05am

Fri Jan 15, 11:05pm

Fri Jan 15, 10:04pm

Fri Jan 15, 9:04pm

Fri Jan 15, 8:04pm

Fri Jan 15, 7:05pm

Fri Jan 15, 6:05pm

Fri Jan 15, 5:05pm

Fri Jan 15, 4:05pm

Fri Jan 15, 3:04pm

Fri Jan 15, 2:05pm

Fri Jan 15, 1:04pm

Fri Jan 15, 12:05pm

Fri Jan 15, 11:04am

Fri Jan 15, 10:04am

Fri Jan 15, 9:05am

Fri Jan 15, 8:04am

Fri Jan 15, 7:04am

Fri Jan 15, 6:04am

Fri Jan 15, 5:05am

Fri Jan 15, 4:04am

Fri Jan 15, 3:04am

Fri Jan 15, 2:04am

Fri Jan 15, 1:04am

Fri Jan 15, 12:05am

Thu Jan 14, 11:04pm

Thu Jan 14, 10:04pm

Thu Jan 14, 9:04pm

Thu Jan 14, 8:05pm

Thu Jan 14, 7:04pm

Thu Jan 14, 6:04pm

Thu Jan 14, 5:04pm

Thu Jan 14, 4:05pm

Thu Jan 14, 3:04pm

Thu Jan 14, 2:04pm

Thu Jan 14, 1:04pm

Thu Jan 14, 12:05pm

Thu Jan 14, 11:05am

Thu Jan 14, 9:04am

Thu Jan 14, 8:04am

Thu Jan 14, 7:04am

Thu Jan 14, 6:04am

Thu Jan 14, 5:04am

Thu Jan 14, 4:04am

Thu Jan 14, 3:04am

Thu Jan 14, 2:04am

Thu Jan 14, 1:04am

Thu Jan 14, 12:04am

Wed Jan 13, 11:04pm

Wed Jan 13, 10:04pm

Wed Jan 13, 9:04pm

Wed Jan 13, 8:05pm

Wed Jan 13, 7:04pm

Wed Jan 13, 6:04pm

Wed Jan 13, 5:04pm

Wed Jan 13, 4:04pm

Wed Jan 13, 3:05pm

Wed Jan 13, 2:04pm

Wed Jan 13, 1:04pm

Wed Jan 13, 12:04pm

Wed Jan 13, 11:04am

Wed Jan 13, 10:04am

Wed Jan 13, 9:05am

Wed Jan 13, 8:04am

Wed Jan 13, 7:04am

Wed Jan 13, 6:04am

Wed Jan 13, 5:04am

Wed Jan 13, 4:04am

Wed Jan 13, 3:04am

Wed Jan 13, 2:04am

Wed Jan 13, 1:04am

Wed Jan 13, 12:05am

Tue Jan 12, 11:04pm

Tue Jan 12, 10:04pm

Tue Jan 12, 9:04pm

Tue Jan 12, 8:05pm

Tue Jan 12, 7:04pm

Meta data:

ID: 33ff0ad6-9420-4bf3-8909-a2f4a8b4dda5
Link: https://api.weather.gov/products/33ff0ad6-9420-4bf3-8909-a2f4a8b4dda5